Tracking 29892 objects as of 21-Nov-2024
HD Live streaming from Space Station
objects crossing your sky now

COSMOS 1867 COOLANT

Track COSMOS 1867 COOLANT now!
10-day predictions


NORAD ID: 39660
Int'l Code: 1987-060X
Perigee: 774.4 km
Apogee: 802.6 km
Inclination: 65.0 °
Period: 100.5 minutes
Semi major axis: 7159 km
RCS: Unknown
Launch date: July 10, 1987
Source: Commonwealth of Independent States (former USSR) (CIS)
Launch site: TYURATAM MISSILE AND SPACE COMPLEX (TTMTR)

Note: This is SATELLITE DEBRIS
Your satellite tracking list
Your tracking list is empty




NASA's NSSDC Master Catalog

Two Line Element Set (TLE):
1 39660U 87060X   24324.23393809  .00000573  00000-0  24442-3 0  9991
2 39660  65.0078 188.4641 0019676 259.7888 100.0979 14.33112927554182
Source of the keplerian elements: AFSPC